[[{"header":{"parameterUnit":"m.s-1","parameterCategory":1,"la1":30.2992,"la2":30.254,"lo1":-89.0895,"lo2":-89.0443,"dy":0.0025,"dx":0.0025,"nx":19,"ny":19,"refTime":"2026-05-06T03:00:00:Z","depth":0,"parameterNumber":2,"parameterNumberName":"U-component_of_WINDS"},"data":[0,0,0,-1.3443,-1.3444,-1.3533,-1.3534,-1.3641,-1.3642,0,0,0,0,0,0,0,0,0,0,0,-1.3412,-1.3412,-1.3442,-1.3445,-1.3533,-1.3534,-1.3641,-1.3642,0,0,0,0,0,0,0,0,0,0,0,-1.3412,-1.3412,-1.3413,-1.3445,-1.3533,-1.3534,-1.3641,-1.3576,0,0,0,0,0,0,0,0,0,0,-1.3491,-1.3458,-1.3412,-1.3413,-1.3445,-1.3533,-1.3534,-1.3573,-1.358,-1.3599,0,-1.3613,0,-1.3629,-1.3649,-1.3649,0,0,0,-1.3448,-1.3452,-1.348,-1.3413,-1.3446,-1.3533,-1.3494,-1.3577,-1.3585,-1.3608,-1.3614,-1.3618,-1.3631,-1.365,-1.365,-1.3741,-1.3742,0,0,-1.3443,-1.3426,-1.3475,-1.3485,-1.347,-1.3491,-1.3497,-1.3582,-1.3588,-1.3615,-1.3621,-1.3633,-1.365,-1.3651,-1.3741,-1.3741,0,0,0,-1.3427,-1.3422,-1.3448,-1.3481,-1.3497,-1.3494,-1.35,-1.3585,-1.3594,-1.3622,-1.3634,-1.3651,-1.3652,-1.3741,-1.3741,-1.3736,0,0,0,-1.3424,-1.3412,-1.3446,-1.3436,-1.3495,-1.3542,-1.35,-1.3589,-1.3599,-1.3633,-1.3651,-1.3653,-1.3741,-1.3741,-1.3736,-1.3736,0,0,0,-1.3408,-1.3411,-1.3422,-1.3435,-1.3472,-1.3541,-1.3556,-1.3591,-1.3606,-1.365,-1.3654,-1.374,-1.3741,-1.3735,-1.3735,-1.3754,0,0,0,-1.3385,-1.3416,-1.3421,-1.3461,-1.3471,-1.3537,-1.3555,-1.3605,-1.3642,-1.3652,-1.3741,-1.3741,-1.3735,-1.3735,-1.3754,-1.3766,-1.3769,0,0,-1.3415,-1.3419,-1.3444,-1.3451,-1.3511,-1.3525,-1.3585,-1.3636,-1.3657,-1.3712,-1.3715,-1.3736,-1.3735,-1.3754,-1.3799,-1.3801,0,0,0,-1.3447,-1.3464,-1.3484,-1.3518,-1.3558,-1.3592,-1.3636,-1.3655,-1.3703,-1.3681,-1.3749,-1.3749,-1.3761,-1.3768,-1.377,-1.3781,-1.3744,-1.3744,-1.3744,-1.3462,-1.3487,-1.353,-1.3565,-1.3599,-1.3644,-1.3673,-1.3707,-1.3723,-1.3739,-1.3754,-1.3778,-1.3785,-1.3787,-1.3798,-1.3764,-1.3764,-1.3764,-1.3764,-1.3507,-1.3535,-1.3556,-1.3604,-1.363,-1.3672,-1.3718,-1.3728,-1.3771,-1.3768,-1.378,-1.3773,-1.379,-1.3801,-1.3764,-1.3764,-1.3764,-1.3764,-1.3764,-1.3518,-1.3536,-1.3558,-1.3611,-1.3649,-1.3685,-1.3725,-1.3749,-1.3771,-1.3783,-1.3802,-1.3802,-1.3805,-1.3791,-1.3791,-1.3791,-1.3791,-1.3791,-1.3791,-1.352,-1.3546,-1.3576,-1.3622,-1.3647,-1.3683,-1.3731,-1.3757,-1.3792,-1.3806,-1.3806,-1.382,-1.3787,-1.3777,-1.3793,-1.3792,-1.3792,-1.3792,-1.3792,-1.3553,-1.3549,-1.3596,-1.3621,-1.3677,-1.3713,-1.3744,-1.3795,-1.382,-1.3839,-1.3852,-1.3824,-1.383,-1.3829,-1.3821,-1.3847,-1.3847,-1.3847,-1.3847,-1.3561,-1.3567,-1.362,-1.3659,-1.3701,-1.3733,-1.3786,-1.3824,-1.3863,-1.388,-1.3881,-1.3873,-1.387,-1.3878,-1.3875,-1.3868,-1.3906,-1.3906,-1.3906,-1.3582,-1.3593,-1.3633,-1.367,-1.3716,-1.3755,-1.3806,-1.3851,-1.3895,-1.3909,-1.3894,-1.3892,-1.388,-1.3875,-1.3885,-1.3881,-1.3868,0,0]},{"header":{"parameterUnit":"m.s-1","parameterCategory":1,"la1":30.2992,"la2":30.254,"lo1":-89.0895,"lo2":-89.0443,"dy":0.0025,"dx":0.0025,"nx":19,"ny":19,"refTime":"2026-05-06T03:00:00:Z","depth":0,"parameterNumber":3,"parameterNumberName":"V-component_of_WINDS"},"data":[0,0,0,4.1351,4.1351,4.1341,4.1341,4.1328,4.1328,0,0,0,0,0,0,0,0,0,0,0,4.1355,4.1355,4.1351,4.1351,4.1341,4.1341,4.1328,4.1328,0,0,0,0,0,0,0,0,0,0,0,4.1355,4.1355,4.1355,4.1351,4.1341,4.1341,4.1328,4.1335,0,0,0,0,0,0,0,0,0,0,4.1345,4.135,4.1355,4.1355,4.1351,4.1341,4.1341,4.1336,4.1335,4.1333,0,4.1333,0,4.1331,4.1327,4.1327,0,0,0,4.1349,4.1351,4.1348,4.1355,4.1351,4.1341,4.1345,4.1335,4.1334,4.1332,4.1333,4.1332,4.133,4.1327,4.1327,4.1328,4.1328,0,0,4.135,4.1354,4.1348,4.1347,4.135,4.1345,4.1345,4.1335,4.1335,4.1333,4.1332,4.133,4.1327,4.1327,4.1328,4.1328,0,0,0,4.1353,4.1354,4.1351,4.1348,4.1346,4.1345,4.1344,4.1335,4.1334,4.1332,4.133,4.1327,4.1327,4.1328,4.1328,4.1337,0,0,0,4.1353,4.1356,4.1351,4.1353,4.1346,4.1341,4.1346,4.1335,4.1334,4.133,4.1327,4.1327,4.1328,4.1328,4.1336,4.134,0,0,0,4.1355,4.1356,4.1355,4.1354,4.135,4.1341,4.1339,4.1335,4.1333,4.1327,4.1327,4.1328,4.1328,4.1336,4.1339,4.1342,0,0,0,4.1359,4.1361,4.1356,4.1358,4.135,4.1348,4.1339,4.1336,4.1333,4.1327,4.1328,4.1328,4.1336,4.1339,4.1342,4.1345,4.1347,0,0,4.1364,4.1362,4.1363,4.1358,4.1358,4.1349,4.1349,4.1341,4.1335,4.133,4.133,4.1337,4.1339,4.1342,4.1357,4.1359,0,0,0,4.1366,4.1367,4.1366,4.1364,4.136,4.1357,4.1348,4.1346,4.1342,4.1334,4.1338,4.134,4.1341,4.1342,4.1344,4.1345,4.1329,4.1329,4.1329,4.1377,4.1373,4.1375,4.137,4.1369,4.1362,4.136,4.1355,4.1349,4.135,4.1348,4.1358,4.136,4.1361,4.1363,4.135,4.135,4.135,4.135,4.1384,4.1385,4.138,4.1381,4.1376,4.1375,4.137,4.1366,4.1365,4.1359,4.136,4.1354,4.1363,4.1364,4.1351,4.1351,4.1351,4.1351,4.1351,4.139,4.139,4.1389,4.1388,4.1388,4.1382,4.1383,4.1378,4.1373,4.1374,4.1372,4.1372,4.1371,4.1374,4.1374,4.1374,4.1374,4.1374,4.1374,4.1397,4.1396,4.1397,4.1396,4.1395,4.1394,4.1389,4.1388,4.1386,4.1382,4.1382,4.1377,4.1366,4.1363,4.1375,4.1374,4.1374,4.1374,4.1374,4.1405,4.1403,4.1405,4.1405,4.1404,4.1404,4.14,4.1399,4.1397,4.1397,4.1393,4.1386,4.1382,4.1381,4.1379,4.1394,4.1394,4.1394,4.1394,4.141,4.1409,4.1412,4.1412,4.1412,4.1409,4.1412,4.1409,4.1405,4.1404,4.1401,4.1398,4.1397,4.1394,4.1393,4.1391,4.1408,4.1408,4.1408,4.1415,4.1414,4.1417,4.1416,4.1415,4.1415,4.1417,4.1417,4.1413,4.1409,4.1403,4.1403,4.1397,4.1396,4.139,4.1388,4.1384,0,0]}]]